STARLINK-32710, 62604

Orbit data source: Space-Track

STARLINK-32710, 62604 is a payload satellite owned by SpaceX/Seattle (US) in LEO that was launched on Mon, 13 Jan 2025 UTC via an FALCON 9 launch vehicle from the Air Force Eastern Test Range (AFETR). Payloads include a variety of satellites, spacecraft, and rockets equipped with specific instruments for various scientific and technological missions. These include communications satellites like Starlink; space stations such as the ISS; scientific satellites like the Hubble; Earth observation satellites from companies like Planet Labs, Umbra, and HawkEye 360; GPS; miniature CubeSats for education and research; and military/defense satellites.

Loading next visibility...
STARLINK-32710 details
Identifier
62604, 2025-008T
Orbit
LEO
Last TLE update14 hours ago
Origin
Flag of USSpaceX/Seattle (US)
ManufacturerSpaceX/Seattle
MissionOperational spacecraft
Bus & MotorSTARLINK V2M, Unknown motor
Mass730 kg wet, ~700 kg dry
Launch date (UTC)
2025-01-13 (3 weeks ago)
Launch vehicle
FALCON 9
Launch site
Air Force Eastern Test Range (AFETR)
Object type
Payload
Rocket body
Debris
Shape & HBRUnknown
Radar Cross SectionLarge (>1 m²)

Expand to show TLE details & history

TLE from 14 hours ago
0 STARLINK-32710
1 62604U 25008T   25035.58335648 -.00040526  00000-0 -68784-3 0  9995
2 62604  43.0005   9.4507 0001615 266.4796  31.9543 15.50606989  4682
Epoch: 2025-02-04T14:00Z
Definitive object data (Epoch: 2025-02-04T14:00:01.999Z)
Latitude-37.02132°
Longitude-29.0771°
Altitude424.83 km
Speed7.657 km/s
True Right ascension21h 03m 40s
True Declination-36° 50' 53"
Sunlit
Object was in daylight at TLE epoch
Visualization TLE readout
Latitude-16.62548°
Longitude2.45812°
Altitude418.001 km
Speed7.661 km/s
Apparent Right ascension21h 03m 10s
Apparent Declination-33° 33' 02"
Sunlit
Object is in daylight
Visualization observer readout
Local Sidereal Time06:06:09
Azimuth265.979° W
Elevation-54.336°
Doppler factor1
Orbital elements
Apogee altitude418.015 km
Perigee altitude415.82 km
Semi-major axis6,795.054 km
Eccentricity0.0001615
Inclination43.0005°
RAAN9.4507°
Arg. of periapsis266.4796°
True anomaly31.9641°
Mean anomaly31.9543°
Eccentric anomaly31.9592°
Mean motion3.87484 °/min
BSTAR-0.00068784
Orbital period92.91 mins
Loading maneuver chart data...
Loading historical data...
Loading historical data...
Loading historical data...
Loading historical data...
Loading historical data...
Loading historical data...
Loading historical data...

STARLINK-32710 Visibility forecast

Observer location: undefined°, undefined

Span
Click to sort rows by Start time (UTC) header in descending order
Start Az.
Max El. time (UTC)
Max El. Az.
Max El.
End time (UTC)
End Az.
6 mins2025-02-05 04:31:22.349Z286.446° WNW2025-02-05 04:34:22.349Z351.303° N36.252°2025-02-05 04:37:22.349Z76.451° E
5 mins2025-02-05 06:10:22.349Z286.063° WNW2025-02-05 06:12:22.349Z130.676° SE43.762°2025-02-05 06:15:22.349Z111.945° ESE
5 mins2025-02-06 02:05:22.349Z248.421° W2025-02-06 02:07:22.349Z91.828° ESE44.502°2025-02-06 02:10:22.349Z72.375° E
4 mins2025-02-06 03:43:22.349Z298.586° NW2025-02-06 03:44:22.349Z331.687° NNW34.921°2025-02-06 03:47:22.349Z70.578° E
|